Wind_Speed
1 2 4 4 2 0 2 1 1 1 1 3 2 1 5 4 5 9 9 11 9 5 10 16 12 8 8 8 9 10 9 4 2 3 4 11 24 26 23 28 30 28 25 24 25 21 19 18 18 17 16 15 15 16 16 15 14 13 13 13 12 13 14 14 15 15 15 15 14 14 14 14 14 13 12 12 11 10 9 9 9 10 10 10 9 9 8 8 8 8 7 7 7 7 8 8 8
3 4 4 1 0 1 1 0 2 1 2 2 0 3 7 5 4 8 9 9 10 11 13 17 15 12 14 12 11 12 10 8 9 8 9 23 27 23 27 29 30 28 25 24 24 21 19 18 17 17 15 15 15 16 16 15 14 13 13 12 12 13 13 13 14 14 15 14 14 14 13 13 13 12 12 12 12 10 9 9 10 10 10 10 10 10 9 9 8 7 6 6 6 6 7 7 7
7 6 3 1 2 2 1 1 1 2 2 1 3 2 5 5 6 7 8 11 15 18 16 15 14 12 14 11 9 10 8 8 13 12 13 25 22 22 30 28 29 27 25 24 22 21 19 18 17 16 16 15 15 16 15 15 14 13 13 12 12 12 12 13 13 14 14 14 14 13 13 13 13 13 12 12 11 10 10 9 10 10 10 10 10 10 9 8 8 7 6 6 6 6 6 6 6
8 6 5 3 3 2 2 1 1 1 2 0 3 4 5 6 10 10 10 14 15 16 14 13 11 9 11 12 9 9 8 7 13 14 13 20 20 26 31 28 28 27 26 23 21 21 19 19 18 17 16 16 16 15 16 15 14 14 13 12 11 11 12 12 13 13 13 13 13 13 13 12 12 12 12 12 11 10 10 9 9 9 10 10 9 9 9 8 8 7 6 6 5 5 5 6 6
7 4 6 6 1 1 1 1 1 1 1 1 4 7 6 7 11 13 12 14 15 14 12 11 9 9 11 10 6 6 9 8 13 17 17 21 25 30 29 28 28 26 25 23 22 22 20 20 19 19 17 16 16 15 15 15 14 13 13 12 11 11 12 12 12 12 12 12 12 12 12 11 11 11 11 11 10 10 9 9 9 9 9 8 8 8 7 7 7 7 6 5 5 4 4 5 6
8 4 5 6 2 1 1 2 2 2 1 1 5 7 8 8 11 14 13 13 15 12 12 12 11 12 10 9 7 5 9 11 13 17 20 25 29 29 29 28 26 26 26 23 22 22 22 21 20 20 18 17 16 15 15 14 14 13 13 11 11 11 12 12 11 11 11 12 12 12 11 11 10 10 11 9 8 8 8 7 7 7 7 7 7 6 6 6 5 5 5 4 4 4 4 5 6
7 4 3 4 2 2 1 4 3 0 2 3 6 8 9 9 10 13 12 13 14 11 12 13 13 13 8 7 8 7 10 14 16 18 22 27 30 29 28 26 25 26 25 23 22 22 22 21 21 20 18 17 15 15 14 14 13 13 12 11 11 11 11 11 10 10 11 11 11 11 11 10 10 10 9 8 6 6 6 6 6 5 5 6 6 6 6 5 5 5 5 4 4 4 5 5 6
5 2 1 3 2 0 2 5 4 1 2 5 8 8 8 9 9 10 11 11 11 11 12 13 13 12 8 7 6 8 11 15 19 23 26 29 30 28 26 25 25 26 24 23 22 22 23 21 21 19 18 17 15 15 13 13 13 12 12 11 11 10 10 10 9 10 10 10 10 9 10 10 9 8 7 6 5 5 6 6 6 6 6 6 6 7 7 7 6 6 6 6 5 4 5 6 7
3 2 1 3 3 2 3 4 4 2 4 7 8 7 7 8 8 8 9 11 12 11 12 12 11 10 10 10 7 8 11 16 22 28 29 28 29 27 25 25 25 25 24 23 22 23 23 22 21 19 18 17 15 14 13 13 12 12 11 11 11 10 10 9 9 9 9 9 8 8 9 9 7 6 6 5 4 5 6 6 6 6 6 6 6 7 7 8 8 7 6 6 6 5 5 6 7
1 1 1 2 3 4 3 3 3 4 3 6 7 7 6 6 6 7 7 11 14 12 11 11 12 13 12 10 7 7 13 19 24 27 27 28 28 25 25 25 24 24 24 24 22 21 21 21 20 18 17 17 15 14 13 12 12 12 11 11 10 10 9 8 8 8 8 8 8 8 7 7 5 4 4 3 4 5 6 6 7 7 7 6 6 7 7 8 9 9 7 6 6 4 5 6 8
1 2 0 2 3 3 2 3 4 5 4 5 6 6 4 4 4 7 7 11 16 13 12 11 12 15 13 9 6 10 17 21 25 26 27 28 26 24 24 25 24 23 24 24 23 21 20 20 19 17 17 16 15 14 13 12 12 12 11 11 10 9 9 8 7 7 7 6 7 6 5 5 4 3 2 3 4 5 5 5 6 7 7 7 8 8 8 8 9 9 7 6 5 4 5 6 8
1 2 1 2 1 1 1 1 2 6 5 5 3 3 2 4 3 6 7 10 16 13 11 10 11 12 11 8 6 13 19 19 24 26 27 27 26 25 25 25 23 22 23 24 24 22 21 20 18 16 16 15 15 14 13 12 12 11 11 10 10 9 8 8 7 6 5 5 5 4 4 4 3 3 3 4 4 4 4 5 6 7 7 8 9 9 9 8 8 8 7 6 5 4 4 6 9
0 2 1 1 1 1 2 2 2 5 2 3 2 2 3 3 4 6 4 9 14 11 10 11 13 11 9 9 8 12 16 18 22 25 26 25 24 24 24 25 25 23 23 24 24 23 22 20 18 16 16 15 14 14 14 13 12 11 11 10 9 9 8 7 6 5 4 4 4 3 3 2 3 4 4 3 4 6 5 5 6 8 8 9 9 9 9 8 8 7 7 6 4 3 4 6 8
1 1 1 1 2 1 2 3 2 4 1 1 2 2 5 3 3 8 5 9 12 9 11 13 14 12 9 9 8 9 13 19 23 24 25 24 24 24 23 25 26 24 23 23 24 23 22 20 18 17 16 15 14 13 13 13 12 11 10 10 9 9 8 6 4 4 3 3 2 2 2 3 4 5 6 3 4 7 6 6 8 9 9 9 9 9 9 8 7 7 6 5 4 3 4 6 7
1 1 1 2 1 1 2 3 2 3 1 1 1 3 2 4 1 9 7 8 11 11 12 13 12 8 9 10 7 10 16 22 24 25 25 24 25 25 24 25 25 24 23 22 23 23 22 21 19 17 17 15 14 12 12 13 12 12 11 10 9 8 7 6 4 3 3 2 2 2 2 3 4 5 7 5 5 8 6 7 10 10 10 9 8 9 8 7 7 7 6 5 3 2 3 4 5
4 4 1 2 2 2 3 2 3 3 1 3 1 3 3 2 5 8 5 5 10 13 10 9 8 7 10 11 10 16 22 25 25 25 26 25 25 24 24 24 25 22 22 22 22 23 22 22 21 19 18 16 14 13 13 13 13 12 11 10 9 8 7 6 5 3 2 3 3 3 2 2 3 4 7 7 8 9 8 9 11 10 10 8 8 9 8 7 7 6 5 5 3 2 2 3 4
2 3 2 2 2 3 3 1 2 1 2 2 1 1 4 3 5 6 6 4 8 11 8 6 5 7 11 12 18 23 25 26 25 26 25 24 24 21 19 21 24 21 20 21 21 22 21 21 21 20 19 17 16 15 15 14 13 13 12 11 9 8 7 6 5 3 3 3 3 2 1 2 3 4 5 6 7 8 9 11 11 11 11 9 8 8 7 7 7 6 5 4 3 2 2 3 4
0 0 1 1 1 2 2 2 2 3 2 0 2 1 3 5 2 5 7 4 5 7 7 9 8 8 13 18 24 25 26 26 26 26 24 22 22 19 18 18 21 21 20 20 21 22 22 21 20 19 19 19 18 16 16 15 14 15 13 11 10 8 7 6 5 3 3 2 1 1 1 1 2 5 3 4 5 5 8 10 10 10 10 9 9 7 6 6 7 6 5 4 2 2 2 2 5
2 1 1 2 0 1 1 4 2 3 3 2 5 3 4 4 6 4 8 2 1 7 6 10 10 8 15 22 26 26 27 27 27 27 23 21 22 21 20 20 20 21 22 21 21 22 22 21 20 19 19 20 19 17 17 16 15 16 13 11 10 9 8 7 5 3 3 4 4 3 1 1 4 6 4 5 7 7 8 10 10 9 9 10 10 8 5 6 7 6 4 3 1 2 3 3 4
2 1 1 1 2 2 3 4 1 2 4 3 7 5 2 2 7 5 7 1 3 8 6 8 10 11 16 21 24 27 28 26 27 26 24 23 23 23 22 21 21 21 22 22 22 21 21 21 19 18 19 19 20 18 17 16 15 16 15 12 11 10 9 8 7 6 6 7 7 6 4 2 4 6 6 7 8 8 8 9 10 10 9 10 11 10 8 7 8 8 4 3 4 5 4 4 3
1 4 2 1 4 3 3 3 2 2 2 2 7 9 7 8 10 7 4 4 2 5 7 8 10 13 16 18 22 25 26 26 27 25 25 24 23 24 22 22 23 22 22 22 21 22 21 21 19 18 18 19 19 17 17 17 15 15 15 13 12 11 11 10 8 9 9 8 8 7 6 4 5 5 5 7 7 7 8 8 9 9 7 8 9 10 10 8 8 10 7 5 7 9 7 6 3
3 4 2 3 3 2 3 3 1 2 4 4 6 4 4 8 6 7 4 2 1 3 7 10 11 13 14 17 20 21 23 24 24 24 25 24 23 23 23 23 23 23 23 22 22 22 22 21 20 20 18 19 19 17 16 17 15 14 14 14 13 12 12 11 10 10 9 9 9 7 6 6 6 6 6 8 8 8 8 8 8 7 7 7 7 9 10 7 7 9 7 6 9 11 8 6 1
3 3 4 4 3 2 3 3 2 1 2 2 1 1 3 5 0 3 6 5 1 2 6 10 12 13 14 16 19 19 21 22 22 23 24 24 22 22 23 24 23 23 22 22 22 22 22 21 20 20 19 19 19 17 16 17 16 14 13 14 14 13 13 12 11 10 10 9 9 8 7 6 6 7 7 7 8 9 9 8 8 7 7 7 7 8 8 8 7 7 6 5 8 9 5 3 1
3 2 4 6 3 2 3 3 3 2 2 1 2 1 3 3 1 3 6 4 1 2 4 7 9 13 15 16 18 19 20 22 23 24 24 24 24 23 24 24 23 23 22 21 22 22 22 22 21 21 20 20 19 18 16 16 15 14 13 14 14 14 13 13 11 10 10 10 10 8 7 8 8 8 8 5 7 10 9 8 8 8 8 8 8 7 8 9 7 6 6 6 5 6 5 0 2
5 3 4 7 3 1 2 3 3 2 2 1 3 2 1 1 2 4 6 3 0 1 1 4 6 11 15 16 18 19 19 21 23 25 24 23 24 25 24 23 23 23 23 22 22 22 22 22 22 21 21 21 20 18 16 15 15 14 13 14 15 13 13 12 11 11 11 9 9 9 9 9 9 9 8 5 6 10 9 8 8 8 8 8 8 8 9 9 7 7 7 6 6 6 7 2 2
6 3 4 6 3 2 3 2 2 3 2 1 3 2 1 2 4 5 6 4 1 5 5 3 6 11 13 14 17 18 19 21 22 25 25 23 25 25 24 24 23 23 23 23 22 21 22 23 22 22 21 21 20 19 17 16 16 15 15 15 14 13 12 11 10 10 10 9 9 10 10 9 9 9 8 5 6 9 9 9 9 8 9 8 8 8 9 9 8 8 7 8 7 6 7 2 2
4 5 6 5 4 4 3 3 3 0 2 3 3 3 1 1 4 3 5 6 3 2 4 7 9 12 13 12 16 17 19 22 22 24 24 23 24 23 24 25 25 24 23 23 23 22 23 23 23 22 21 21 20 19 18 17 17 16 15 15 14 13 12 11 10 9 9 9 9 11 12 10 9 9 8 6 7 9 9 10 9 8 8 8 8 8 8 9 8 8 8 10 9 7 7 4 2
2 4 6 1 1 3 1 3 4 2 2 3 3 4 5 3 3 4 5 7 7 5 3 2 9 11 13 13 14 15 16 21 24 24 23 23 23 23 24 25 25 25 24 23 22 22 23 24 24 23 22 22 21 19 18 17 17 16 15 14 14 13 12 11 10 9 9 10 10 11 12 11 10 10 9 8 7 8 8 9 8 8 8 7 8 8 8 9 8 8 8 9 9 8 8 7 5
2 3 2 3 2 1 1 3 5 4 2 3 3 4 6 7 7 6 6 5 5 5 5 4 5 11 10 13 13 13 15 20 23 23 23 23 23 25 25 22 21 23 24 23 22 22 23 25 24 24 22 23 22 19 18 17 16 16 16 14 13 13 12 12 11 11 12 11 11 11 11 11 11 10 9 8 8 8 8 9 8 8 8 7 8 8 8 9 9 9 10 9 8 6 9 10 8
1 2 4 3 1 2 4 4 5 5 2 3 4 3 2 6 8 7 6 5 4 3 2 2 1 9 10 11 11 13 15 18 20 21 24 25 24 25 26 24 21 21 22 22 23 23 23 23 24 24 23 23 22 20 19 18 17 16 16 15 13 13 13 13 11 11 12 12 12 12 11 11 12 11 10 9 9 9 8 9 9 9 9 8 8 8 8 9 9 9 10 10 9 8 10 11 9
3 2 3 4 4 2 7 5 5 4 2 5 5 3 1 2 5 7 7 7 6 5 2 1 3 5 12 10 11 12 15 18 21 23 26 27 26 25 26 27 23 21 21 21 23 23 22 22 22 23 24 24 23 21 20 19 18 17 16 15 14 14 13 14 13 12 12 13 14 14 14 13 13 12 11 10 9 9 9 9 9 9 9 8 8 8 8 8 9 9 8 9 10 10 9 11 10
5 2 1 4 5 2 7 5 6 5 4 7 6 3 1 1 4 7 7 8 7 6 4 2 2 3 11 9 12 11 12 17 22 24 26 26 24 23 25 26 27 26 25 23 24 23 22 23 22 21 22 24 23 21 20 20 18 17 17 16 15 15 15 14 13 12 13 15 16 15 15 14 13 12 12 12 10 9 9 9 9 9 8 8 8 8 9 9 9 9 9 9 11 11 9 11 11
2 1 2 5 5 2 4 6 8 8 6 8 8 3 3 3 6 8 8 9 9 8 6 3 1 2 9 10 8 11 11 15 18 21 25 25 24 24 24 25 26 27 25 24 24 24 23 22 22 22 23 23 23 22 20 20 19 17 17 16 15 15 15 14 13 13 14 16 16 15 15 16 14 13 13 12 11 9 9 10 9 9 8 8 8 8 9 9 9 10 10 9 10 12 12 13 10
2 0 3 4 6 6 3 7 8 10 9 9 9 6 6 4 5 8 9 10 11 10 8 8 5 2 4 11 9 9 12 12 14 18 23 24 23 24 24 25 25 24 24 24 25 25 24 23 23 22 23 23 23 22 21 20 18 17 16 15 15 15 14 14 14 13 14 14 14 15 16 17 15 13 13 13 12 11 10 10 9 8 7 7 7 9 9 9 9 10 10 9 8 9 11 13 13
4 3 4 5 6 8 2 5 6 9 8 8 9 8 9 6 5 8 10 11 12 11 9 9 8 6 3 8 10 7 10 13 13 17 23 23 22 23 23 24 24 23 22 23 24 25 25 26 25 22 22 23 22 21 21 20 18 17 16 15 15 15 14 14 15 14 14 13 13 14 16 18 15 12 13 13 12 11 10 10 10 9 8 7 7 9 9 9 9 9 10 10 8 8 11 14 14
8 8 8 8 8 9 5 4 4 5 5 7 7 10 9 8 8 9 10 11 11 11 10 8 9 8 5 6 4 7 10 11 14 18 21 22 22 22 21 22 23 23 22 22 22 22 23 23 23 23 22 22 22 22 21 19 18 17 17 16 16 16 15 15 15 14 14 13 13 13 15 16 13 12 13 13 13 12 10 10 10 10 9 9 9 10 10 9 8 9 10 10 9 9 10 13 13
10 10 9 11 9 8 6 1 3 3 2 7 8 9 9 8 10 10 9 9 11 11 11 9 9 10 6 6 4 4 10 9 11 17 19 21 21 21 21 21 23 23 22 23 22 22 23 23 21 23 23 21 23 24 22 20 19 18 18 17 17 17 16 15 14 14 13 13 13 13 14 14 13 13 14 13 14 13 11 11 10 10 10 10 10 10 10 10 9 9 9 9 9 9 10 11 13
11 10 8 10 8 8 8 1 4 4 2 7 10 11 9 7 6 8 9 9 10 10 10 10 10 11 7 6 6 4 4 9 8 12 17 20 21 21 21 20 22 24 23 23 23 23 24 25 25 24 23 23 23 24 23 20 19 18 17 17 16 16 17 16 15 15 14 13 14 13 12 12 13 14 14 14 14 13 12 11 11 11 10 10 11 10 10 11 10 9 9 9 9 10 11 12 14
10 8 8 8 6 9 8 5 7 6 4 5 8 8 7 9 9 6 10 9 8 8 8 8 9 10 8 7 6 5 6 6 8 11 15 19 21 21 21 20 21 22 23 23 23 23 23 24 28 26 24 24 24 23 22 20 19 18 17 16 16 15 15 16 15 15 15 13 13 15 13 11 13 14 14 14 14 13 12 12 11 11 11 11 11 10 10 10 11 9 9 11 11 11 11 12 14
8 7 7 7 7 10 7 1 6 6 6 6 6 6 5 7 6 6 9 6 5 6 7 7 8 10 10 9 8 5 7 4 5 9 9 13 19 21 20 20 21 21 22 23 22 23 23 23 25 27 25 24 25 25 23 20 19 18 17 16 16 15 13 15 16 15 15 14 13 15 15 14 14 14 14 14 13 13 13 13 12 11 11 11 11 11 11 10 11 10 9 11 12 11 11 12 13
8 9 8 7 9 10 9 7 5 3 7 10 9 7 3 5 2 8 5 4 2 5 7 7 7 10 12 10 8 6 6 1 3 8 3 4 12 18 22 20 20 22 21 22 23 23 23 22 23 26 26 23 23 25 24 21 19 19 18 17 16 15 14 14 16 15 14 14 13 14 16 16 15 15 14 14 14 13 13 13 13 11 11 11 11 11 12 11 10 11 11 11 12 12 13 12 12
8 8 9 10 10 11 11 11 4 2 7 3 3 6 3 4 0 9 6 6 5 6 7 7 8 10 12 11 9 8 8 8 7 8 4 3 11 13 18 20 19 21 22 22 23 23 23 23 23 24 25 23 21 23 25 23 21 20 19 17 16 15 14 13 15 15 14 14 14 13 16 17 16 15 15 14 14 14 14 14 13 12 11 11 12 12 12 12 11 11 11 11 12 13 13 13 13
6 6 10 12 12 14 15 14 8 5 7 5 6 8 4 4 3 12 11 10 8 7 8 9 9 9 10 10 10 10 9 9 10 8 7 7 5 11 14 19 21 20 21 22 22 23 23 23 24 24 24 23 21 21 24 24 21 20 19 18 17 15 14 14 13 13 12 13 14 13 15 18 17 15 14 14 15 14 14 14 14 13 12 11 12 12 12 12 11 9 9 10 12 11 11 11 12
5 9 13 15 13 13 14 13 9 7 8 9 11 8 6 6 3 10 11 12 10 11 11 9 7 9 11 11 10 11 11 10 9 9 8 7 9 10 15 17 21 21 21 22 22 23 23 23 24 24 23 23 21 21 24 24 22 20 20 19 17 16 15 15 13 13 12 12 13 13 14 17 18 16 15 15 15 15 14 14 14 14 13 12 12 12 11 10 10 9 9 10 10 10 9 8 9
8 11 13 13 13 12 11 10 8 8 9 8 7 7 6 6 1 4 6 8 9 11 12 8 6 8 9 9 10 10 11 11 9 9 11 10 11 15 16 18 21 21 18 18 19 20 21 23 24 24 23 23 21 21 23 25 23 21 20 19 18 17 16 15 14 13 14 12 11 12 12 14 17 16 14 14 15 15 15 15 15 15 14 13 13 12 11 11 11 10 10 8 8 9 9 8 8
10 12 12 11 11 11 10 9 7 9 9 7 9 9 7 6 3 3 5 6 6 5 8 7 7 7 7 9 10 10 10 10 11 11 11 13 14 15 16 18 17 15 12 14 17 17 16 18 23 24 23 23 21 21 23 25 24 21 21 20 18 17 16 15 15 16 15 12 11 12 11 12 16 15 14 14 15 15 15 15 15 15 14 14 13 12 12 12 12 12 11 9 9 9 9 9 11
9 10 9 9 9 9 8 6 5 7 7 7 10 9 6 7 5 4 3 3 5 2 8 9 9 8 9 10 10 11 10 7 10 12 10 12 14 13 14 15 14 13 13 15 14 16 18 18 22 25 24 23 22 22 24 25 24 22 21 21 19 17 17 16 16 17 16 13 12 13 12 12 13 14 13 14 15 15 15 16 15 15 15 14 14 13 12 12 12 12 11 11 10 10 9 10 11
9 7 6 6 6 6 5 5 3 4 7 8 10 9 7 7 5 5 3 1 2 2 6 7 9 10 8 8 9 9 10 9 10 12 11 10 11 12 15 15 17 19 18 17 14 17 23 21 21 26 24 24 23 21 23 24 23 22 20 20 20 19 18 17 16 15 16 15 14 14 15 14 13 14 15 14 15 15 16 16 16 15 16 15 14 14 13 12 12 11 11 11 11 12 12 12 12
7 7 7 7 6 4 4 5 4 4 7 9 12 10 7 7 5 5 5 3 7 2 4 10 10 9 7 8 9 7 9 10 11 11 11 10 10 12 17 17 18 19 20 23 21 19 23 19 18 26 26 24 24 22 22 24 23 22 21 20 20 19 18 17 15 15 16 16 15 14 15 15 15 15 16 16 16 16 16 17 17 16 16 15 15 14 13 12 12 10 10 10 10 11 12 12 12
8 7 7 7 7 7 6 6 5 5 7 8 11 10 6 5 3 4 7 0 8 5 9 12 8 5 6 7 9 9 10 11 12 13 12 12 11 13 18 18 19 20 20 24 22 18 21 20 19 25 27 26 26 23 22 24 23 21 20 19 19 19 18 17 16 15 15 15 15 15 15 15 16 15 15 17 17 15 15 17 17 17 16 15 15 15 13 11 11 11 10 10 9 10 10 11 12
10 8 7 7 6 6 6 6 7 8 8 7 8 8 6 4 3 4 7 3 7 10 12 11 8 7 3 3 6 9 12 12 13 13 11 12 13 14 17 17 20 23 21 21 19 19 24 25 22 23 26 27 26 24 23 23 23 21 20 19 18 18 18 17 17 16 15 15 15 15 15 15 15 15 15 16 16 16 16 17 17 16 16 15 14 14 13 12 12 11 11 11 10 10 10 11 11
7 7 6 6 5 5 6 7 9 10 9 7 6 5 5 2 1 5 5 2 7 10 12 11 9 7 5 5 5 6 9 11 13 13 12 13 14 16 16 14 18 21 20 20 18 18 22 27 25 23 25 27 26 24 23 22 21 20 19 19 18 18 18 17 17 16 15 15 15 15 15 15 13 14 15 15 15 16 17 17 17 16 16 16 15 14 13 13 13 12 12 12 11 11 11 11 11
6 7 6 8 10 7 6 7 9 9 8 7 5 4 6 4 4 3 3 3 9 13 14 11 8 7 7 6 7 5 5 8 11 12 12 12 13 16 16 16 19 19 18 19 16 17 20 25 27 24 22 26 27 25 23 22 21 20 20 19 19 18 18 17 17 17 16 15 15 14 14 14 13 12 13 13 14 15 15 16 17 16 16 16 15 14 13 12 12 12 11 12 11 11 11 11 11
5 6 7 9 10 6 4 6 6 7 7 6 6 6 6 5 2 7 13 12 14 14 11 9 9 10 9 7 8 9 9 8 6 9 10 11 12 14 17 21 23 21 19 19 16 19 22 24 26 25 21 23 25 24 22 21 19 18 18 18 18 18 18 17 16 16 16 15 14 14 13 13 14 14 13 12 12 13 14 14 15 15 15 15 14 14 14 13 11 10 10 9 9 10 12 13 13
10 6 5 6 6 5 4 5 5 7 7 6 7 8 5 6 6 10 15 13 12 10 7 9 10 11 11 10 11 14 11 9 6 6 8 8 9 15 19 22 24 23 21 20 19 21 23 23 23 26 24 22 24 25 23 21 21 19 17 18 19 18 17 17 16 15 15 15 14 14 14 13 13 14 14 13 11 12 14 14 14 13 12 13 14 13 13 13 11 10 10 9 9 10 13 14 14
5 6 7 5 3 5 5 5 5 6 7 7 8 7 3 7 8 11 14 12 11 10 8 9 9 10 11 10 12 15 13 10 8 7 9 9 11 17 22 23 24 23 21 22 23 23 23 24 25 27 22 15 14 16 16 14 15 11 9 12 14 13 14 15 15 15 15 15 15 15 15 14 14 14 14 14 14 13 13 13 14 13 12 11 13 13 12 12 12 11 10 10 10 10 12 12 13
6 6 7 4 3 5 5 6 5 6 7 6 7 5 3 5 6 10 13 12 12 12 11 9 9 10 11 10 8 13 12 12 12 9 12 14 14 19 24 25 25 23 21 24 25 21 21 24 25 22 17 10 4 2 5 4 5 6 6 9 11 12 16 17 15 15 15 16 18 17 15 13 13 14 13 14 15 14 14 12 12 14 13 11 11 12 11 12 13 12 10 10 10 11 11 11 12
8 7 8 8 7 6 7 7 6 5 6 6 7 5 3 5 7 9 11 12 12 13 14 12 10 11 11 10 6 11 11 12 15 15 12 12 13 19 24 24 23 21 19 22 22 20 20 23 23 17 15 15 7 7 12 11 12 17 17 19 21 22 23 20 17 15 13 15 17 15 13 11 11 14 14 13 14 14 14 14 14 15 15 14 13 12 11 10 10 9 9 9 10 11 11 12 13
Wind_Direction
234 236 200 187 205 234 99 86 272 202 223 283 268 138 103 115 141 128 116 118 115 97 98 110 133 147 118 105 107 78 70 92 44 109 120 126 142 149 147 139 138 140 141 148 154 149 147 147 143 142 141 140 135 130 128 126 123 118 114 109 106 104 100 96 95 98 99 96 95 95 94 92 92 91 90 87 86 83 80 79 76 74 72 72 73 68 65 63 61 59 54 52 56 53 50 49 45
183 226 249 206 186 292 145 193 299 319 281 266 184 80 95 111 136 112 114 117 107 116 107 108 125 125 109 101 101 83 66 53 71 89 105 130 140 146 144 140 140 140 141 147 151 148 149 150 146 144 143 141 135 131 128 127 125 120 116 113 109 105 103 100 98 99 97 96 96 95 92 91 91 90 90 88 85 82 78 76 72 70 67 65 65 63 59 55 53 51 47 41 46 45 37 31 25
185 198 251 26 17 323 12 35 311 317 297 152 92 85 114 123 121 108 115 115 108 112 106 105 107 108 115 106 88 86 87 72 97 104 117 135 140 145 145 141 140 140 141 144 147 147 150 151 149 146 145 142 136 133 130 129 126 123 121 117 114 108 108 103 99 98 95 95 93 92 92 91 90 89 88 88 87 82 78 74 69 68 66 64 62 61 57 52 47 43 41 33 34 38 30 18 14
188 179 172 131 14 340 5 11 269 315 311 19 97 115 130 115 118 121 117 116 112 109 104 104 91 83 103 105 94 87 101 100 113 117 129 143 141 145 146 140 139 138 140 144 145 146 151 153 152 148 146 143 137 135 131 129 126 125 124 119 117 113 110 103 100 98 96 95 92 93 92 90 89 87 86 84 80 76 74 71 67 66 64 62 60 59 56 49 43 39 34 27 25 30 24 10 8
196 187 164 155 81 329 300 275 249 233 239 266 109 105 114 113 115 119 118 119 113 108 109 107 97 88 84 92 104 98 113 116 123 128 135 142 140 144 145 140 137 138 141 142 144 146 151 153 151 149 147 143 140 138 133 129 128 127 125 123 121 116 111 104 102 100 99 97 95 95 91 91 90 88 86 82 78 77 73 69 66 62 61 59 56 56 54 49 42 33 26 22 18 16 12 6 5
204 187 174 189 185 176 256 258 242 216 171 82 107 106 120 120 115 119 123 120 105 105 116 111 110 103 82 77 80 91 126 128 132 137 138 140 142 144 143 141 139 140 141 141 143 146 152 153 151 151 148 144 142 139 135 132 130 129 128 128 124 118 114 108 105 103 102 101 98 97 94 92 90 89 85 82 82 81 76 70 65 61 60 54 49 47 44 41 34 25 17 13 9 10 9 9 8
211 177 179 229 200 160 287 296 285 336 42 69 97 105 117 116 120 125 130 123 100 98 109 110 115 103 89 90 83 83 113 128 136 140 141 142 142 143 143 142 140 139 141 141 141 144 152 156 152 152 148 144 144 141 138 134 132 132 130 129 125 120 116 112 108 106 104 103 100 98 99 96 90 88 84 84 83 79 76 66 60 57 53 47 41 34 30 29 22 13 12 12 13 14 12 12 13
213 224 230 284 314 152 337 315 299 299 76 83 90 100 115 119 127 131 136 127 104 109 112 112 110 94 98 110 97 98 114 129 135 139 142 141 141 143 143 142 140 140 141 139 139 145 153 158 155 151 148 145 146 145 141 137 134 133 131 130 127 122 117 114 110 108 108 105 102 101 101 97 91 89 86 81 70 67 62 52 48 45 42 39 35 29 27 22 13 13 21 19 18 20 19 17 16
185 265 270 321 327 355 356 316 303 306 68 88 95 100 111 117 127 131 137 127 118 125 118 115 108 101 113 113 104 108 120 129 133 139 143 143 144 144 143 142 142 142 141 139 140 148 154 159 160 156 151 149 149 147 143 139 136 133 134 133 129 126 122 117 114 110 110 107 103 105 104 98 94 94 94 80 54 55 47 35 30 29 31 31 30 26 23 21 13 14 26 24 20 21 21 21 18
104 342 20 19 333 354 352 334 340 308 26 90 99 99 110 118 131 130 131 122 119 120 111 108 108 114 119 112 111 114 125 133 135 141 146 146 146 144 143 144 145 143 142 141 142 148 154 159 162 160 155 151 150 148 144 142 137 137 137 135 132 129 126 122 118 112 111 109 106 107 104 100 98 100 102 86 51 45 38 27 18 14 14 15 21 20 16 18 16 13 21 28 22 19 25 25 19
45 33 314 48 353 348 346 352 339 300 342 42 80 93 114 122 136 128 124 112 112 120 123 116 109 113 113 106 110 122 133 141 141 145 149 150 149 146 144 145 146 144 144 144 144 147 152 157 158 157 154 150 150 148 146 145 142 141 140 137 136 133 130 126 121 118 117 113 115 114 107 103 99 100 89 65 42 35 31 22 14 8 2 0 6 11 9 11 19 18 18 27 22 20 29 24 20
16 64 304 34 2 332 281 304 294 290 336 1 62 91 110 120 121 113 123 117 122 135 132 123 121 119 113 113 119 130 138 143 145 148 151 152 151 147 144 145 147 146 147 147 146 148 152 154 154 154 153 151 151 151 150 150 147 145 144 144 141 139 135 130 129 126 123 116 122 121 111 108 90 80 63 46 31 21 11 9 11 6 359 355 356 358 2 9 20 21 17 24 22 18 25 21 21
94 111 102 28 274 229 262 245 252 271 325 8 5 358 20 85 96 95 97 96 112 124 119 128 133 124 116 120 132 140 143 147 149 151 153 152 147 147 150 149 148 148 151 150 148 150 152 153 154 156 155 153 153 154 155 154 151 149 149 150 148 145 143 141 141 132 123 113 120 119 114 99 69 67 52 40 28 11 348 352 6 5 359 353 353 355 360 11 18 14 10 16 20 18 18 20 24
344 46 99 80 277 293 273 282 273 259 251 31 292 334 9 345 47 85 92 93 104 115 118 135 133 118 121 129 141 151 149 153 155 154 156 154 147 149 155 150 145 148 152 154 153 152 153 155 156 158 157 154 154 155 158 157 155 157 153 153 152 149 149 151 150 138 131 122 123 114 100 75 67 63 41 35 22 9 346 350 360 356 351 346 351 357 2 10 11 9 5 9 15 13 14 23 29
149 261 144 139 274 320 250 263 248 247 231 145 281 345 350 265 125 84 88 92 108 122 123 145 147 128 146 151 157 158 151 157 158 156 158 157 152 153 157 154 148 150 153 156 157 156 157 158 157 159 159 158 157 158 161 160 161 160 157 156 154 154 156 155 153 147 133 109 83 75 89 75 68 47 29 24 4 3 353 349 351 344 341 341 349 356 0 3 4 6 1 4 8 358 16 25 22
168 191 144 178 194 191 228 237 217 236 137 122 345 322 292 239 102 91 128 130 120 131 135 156 158 139 154 156 151 153 152 157 159 156 159 156 151 155 160 157 151 151 155 160 162 161 163 161 159 161 163 163 161 163 164 164 165 161 160 162 162 163 163 162 162 146 113 82 57 72 93 61 37 2 8 7 344 345 341 335 339 337 337 341 347 349 354 358 2 5 2 4 7 351 13 360 349
187 185 162 187 179 192 212 233 229 298 46 113 238 267 295 320 93 122 165 155 118 126 125 116 102 121 143 143 142 149 149 153 156 156 161 156 149 157 161 155 152 152 157 163 165 165 168 166 163 162 166 167 164 166 165 168 170 164 165 167 169 172 170 178 175 139 118 108 69 60 57 42 359 317 334 344 329 333 328 319 329 337 338 345 344 343 351 2 8 10 14 5 11 2 348 341 336
224 348 245 93 125 205 195 282 341 358 5 141 275 222 280 293 279 133 118 29 57 97 101 102 91 117 128 129 139 148 148 151 157 160 165 158 152 160 164 160 158 157 160 166 168 169 169 168 167 164 168 169 167 169 165 171 173 165 169 170 171 180 181 192 185 148 138 160 309 347 62 96 282 282 290 303 294 299 301 304 329 344 342 349 348 345 349 0 3 5 23 20 36 11 318 344 350
207 37 343 71 182 181 176 266 328 344 322 333 302 251 197 272 313 56 90 351 153 121 114 114 108 122 128 131 144 152 152 156 160 163 166 159 159 165 165 167 165 162 166 170 170 170 169 168 170 169 171 171 169 168 165 171 174 167 171 172 174 185 189 194 190 176 184 224 256 259 211 170 240 264 279 287 286 292 301 312 332 342 343 350 348 346 344 347 349 342 11 25 334 293 305 327 347
216 92 2 97 175 184 205 248 272 307 319 328 316 311 246 329 335 10 89 90 172 142 135 124 127 140 142 140 149 156 156 160 163 164 166 163 167 168 166 168 167 168 173 173 170 171 171 169 171 173 173 172 169 165 165 170 169 169 175 177 179 186 192 197 195 198 206 221 240 255 267 267 269 285 300 304 304 307 313 314 321 332 339 342 335 338 341 334 332 322 318 338 297 270 292 295 291
68 80 2 128 160 204 203 227 254 289 344 24 357 343 337 11 352 336 87 120 171 160 140 129 147 150 151 150 151 158 160 161 165 167 168 170 172 169 168 170 169 172 176 174 171 173 175 172 172 174 175 173 169 166 168 170 165 170 179 182 186 188 193 202 202 203 211 219 226 241 259 259 272 294 297 295 302 301 301 303 308 318 322 321 318 321 324 319 321 314 289 291 299 271 261 254 272
45 96 139 145 162 231 186 195 243 339 7 42 37 353 351 31 360 327 335 251 207 158 135 137 166 160 156 158 153 160 162 163 168 170 171 171 171 169 169 172 172 174 176 174 171 174 177 176 172 173 175 173 171 170 171 172 169 173 182 184 188 191 192 200 206 204 210 219 219 222 238 245 253 268 268 275 291 295 294 299 302 301 301 303 300 302 308 303 300 304 287 284 298 282 258 219 276
54 121 132 111 130 203 188 186 172 166 24 57 126 171 82 72 155 283 300 280 139 123 136 146 169 161 163 164 156 162 165 168 171 172 173 170 170 173 173 172 173 175 176 173 171 173 176 178 173 170 172 174 173 173 172 174 177 179 183 185 187 190 190 196 201 203 210 216 214 213 226 238 243 253 260 270 289 298 291 289 296 297 298 295 293 299 299 293 288 295 291 280 292 294 281 187 271
63 71 79 90 123 187 184 175 172 179 80 54 259 307 80 102 171 252 278 287 114 151 147 156 165 157 170 169 160 166 167 171 172 173 175 171 172 176 174 174 174 175 176 173 172 173 175 178 173 170 174 176 174 173 172 176 180 181 183 187 189 192 191 192 195 202 211 210 208 210 217 227 233 247 254 256 281 292 286 285 291 293 294 291 293 295 288 290 293 288 282 272 274 286 285 271 334
69 51 69 107 140 135 129 169 151 100 69 342 300 334 34 176 220 237 249 265 318 291 129 156 172 169 179 171 165 170 168 172 173 173 176 174 175 177 175 176 177 177 177 174 173 174 176 176 173 172 175 177 176 175 175 177 180 183 186 189 191 194 195 194 197 205 205 203 209 209 213 224 228 243 251 242 270 282 280 283 285 287 289 288 290 287 286 289 290 287 281 267 251 263 280 287 5
87 95 63 92 105 76 93 131 108 108 134 251 289 283 253 307 290 242 208 192 329 333 339 295 218 191 184 173 168 170 170 174 173 173 175 174 179 181 176 177 179 178 177 175 176 178 178 176 176 176 176 176 177 178 179 178 181 186 189 191 191 193 196 196 200 205 201 200 214 214 216 227 226 238 253 243 252 267 272 275 275 282 284 283 285 281 287 288 290 294 284 278 274 280 295 313 29
70 106 79 56 54 66 64 86 95 165 158 182 253 274 231 292 289 248 159 163 167 355 331 305 261 206 182 177 172 166 173 175 170 172 174 175 180 182 179 179 181 178 178 179 179 181 180 178 178 180 179 177 178 180 181 181 182 187 191 191 191 191 192 197 201 205 203 205 217 219 219 228 229 231 248 248 244 256 267 271 270 276 277 280 282 278 284 286 295 298 286 293 303 305 300 309 318
336 100 93 72 34 81 72 122 140 204 216 201 241 268 243 204 240 239 173 170 165 148 158 259 274 234 184 176 174 165 175 174 171 176 177 178 178 180 185 185 181 176 179 181 178 182 182 181 181 181 180 178 180 182 182 184 184 186 192 192 191 191 190 193 200 203 207 213 221 222 219 228 234 226 231 240 242 251 262 269 271 273 275 281 279 278 281 283 295 293 285 291 293 298 290 283 269
288 46 58 195 194 144 132 119 145 185 221 202 227 252 235 213 218 223 198 182 151 144 170 161 275 271 204 175 174 169 174 173 174 179 178 179 179 180 185 189 185 176 180 183 180 183 184 184 184 183 182 178 181 184 184 187 188 187 190 193 194 192 189 191 200 204 209 216 223 225 219 224 227 219 225 234 239 245 253 262 266 269 272 275 276 279 282 283 290 283 279 278 263 267 272 272 267
228 32 290 237 211 184 152 125 155 182 182 170 218 253 224 208 209 207 191 182 160 157 223 139 51 287 241 184 173 174 171 175 178 176 177 181 182 181 181 187 188 175 176 183 185 185 183 186 186 185 186 182 182 185 185 188 189 189 188 192 196 192 190 194 200 209 215 214 216 220 218 221 222 217 224 230 232 240 247 255 258 266 270 271 275 281 284 281 280 279 281 281 262 249 258 271 272
219 158 294 299 322 171 157 154 167 173 150 175 228 264 68 164 189 199 198 183 189 189 206 193 136 267 253 195 173 183 172 177 182 176 181 186 183 181 179 183 185 176 176 185 191 186 181 186 185 184 186 182 184 186 186 188 189 189 189 191 194 192 193 197 200 212 220 214 212 217 217 219 221 216 220 225 228 236 243 250 253 259 265 268 273 277 281 280 279 281 277 278 269 248 245 261 265
249 204 167 271 301 133 151 168 178 177 174 191 226 278 359 245 187 194 202 185 194 203 187 205 144 278 271 222 179 186 177 179 183 180 185 186 182 182 183 185 184 181 182 186 189 184 181 186 183 184 186 181 183 188 187 188 190 190 190 192 192 190 195 203 208 213 216 216 214 215 215 215 217 214 218 224 225 232 239 247 254 255 252 256 269 275 276 276 276 275 266 267 275 274 274 264 248
273 310 200 221 253 244 159 179 194 177 162 191 217 271 312 250 200 186 199 195 199 212 188 166 118 346 295 272 206 182 181 182 185 186 186 183 183 185 188 190 186 183 181 182 185 181 181 185 182 185 188 183 183 188 189 189 191 192 189 192 193 190 194 205 215 215 218 222 217 216 217 211 209 211 215 220 223 229 238 245 253 254 246 247 261 270 270 269 266 268 268 266 275 290 302 290 267
11 314 242 239 262 281 178 169 194 176 167 197 206 236 285 262 194 180 198 204 201 214 197 164 152 125 294 287 260 201 184 184 188 189 185 185 186 184 188 191 189 186 181 183 185 181 180 182 185 189 186 182 182 186 190 189 191 193 191 194 196 195 197 205 214 215 220 224 216 216 214 201 200 209 213 217 220 225 234 243 251 255 253 250 256 264 267 268 267 271 273 269 263 272 284 290 296
324 297 298 295 293 298 298 125 164 182 200 222 198 215 259 258 211 188 202 210 200 207 207 170 141 130 210 272 283 255 202 186 190 194 187 186 187 185 189 189 187 189 186 187 186 182 180 179 183 187 183 180 182 186 189 189 193 195 195 199 200 202 204 207 214 214 215 219 214 208 197 192 199 209 211 215 218 222 232 241 247 253 256 257 259 263 265 265 267 272 274 272 266 260 263 275 296
324 319 315 307 304 301 318 75 139 188 251 268 217 219 241 236 222 206 207 210 200 201 206 179 140 134 196 237 288 292 252 203 186 196 191 186 187 186 189 189 186 188 189 189 187 179 177 178 179 180 181 181 181 184 186 189 195 197 198 202 201 203 206 209 216 216 211 213 212 201 191 196 206 210 212 215 218 219 226 237 243 246 249 253 257 260 265 265 266 273 275 273 272 269 261 261 277
326 313 301 295 294 293 297 307 145 148 277 294 279 265 256 233 221 214 210 206 200 202 206 195 158 149 181 207 198 262 279 261 201 194 192 190 190 187 189 190 185 187 191 189 185 178 179 182 178 173 177 184 181 180 185 191 196 196 198 202 202 202 204 209 215 217 216 211 207 203 197 199 203 208 212 214 219 220 222 232 239 242 243 246 250 255 263 267 272 279 278 270 263 267 267 252 249
308 300 294 292 297 297 290 274 108 129 204 283 288 281 283 289 260 215 201 206 209 207 207 205 179 160 163 194 204 206 261 288 257 206 196 194 192 189 189 190 190 190 189 190 186 184 184 181 176 175 179 184 183 180 184 192 196 195 196 200 203 202 200 204 212 216 218 213 204 202 200 197 198 204 210 212 218 220 221 229 234 237 239 243 249 254 259 263 271 276 274 274 262 253 257 252 246
291 287 288 290 291 285 269 175 159 187 216 273 282 281 293 310 300 217 189 203 214 214 213 212 191 163 153 181 207 216 215 245 262 230 207 197 191 190 191 189 194 194 189 191 190 186 188 184 178 180 183 186 187 185 186 191 195 196 196 199 205 206 198 199 211 215 214 215 204 197 200 201 198 201 208 211 214 217 220 226 229 232 233 236 245 251 254 259 265 265 260 265 268 262 254 249 255
277 272 276 282 285 297 314 181 187 198 226 237 251 273 270 282 283 178 184 211 203 215 217 207 194 166 159 186 194 209 228 242 272 249 225 209 199 191 193 194 193 195 192 192 192 187 190 190 180 178 183 188 187 187 189 191 195 198 199 201 208 213 203 196 208 214 210 212 206 195 198 203 201 201 206 209 211 216 219 222 226 231 230 230 236 243 248 252 255 254 248 247 254 265 262 252 252
283 278 276 282 284 301 318 279 229 197 245 221 213 252 277 298 323 128 168 267 204 224 226 201 190 168 160 178 191 198 208 167 281 267 278 265 235 202 193 196 194 195 194 192 193 191 189 190 183 178 183 189 185 185 189 189 193 199 201 204 211 218 213 199 203 209 205 206 208 199 193 197 202 205 208 210 212 215 217 218 222 227 229 227 228 236 241 246 248 246 246 247 245 249 257 266 269
289 280 275 282 287 298 308 301 298 264 268 229 222 277 304 300 158 127 172 232 201 222 236 208 187 177 168 171 187 198 189 163 193 235 199 203 276 257 210 195 197 200 196 194 194 192 191 189 185 180 183 190 190 188 188 187 192 199 199 200 207 214 214 205 201 203 201 200 207 205 193 189 197 205 209 211 211 212 214 216 219 223 227 225 226 234 238 242 246 246 245 248 248 250 258 272 286
283 314 312 305 313 319 324 328 325 284 292 322 290 281 293 282 150 138 171 192 194 220 234 220 193 186 190 184 187 192 190 177 177 202 201 180 232 277 243 206 202 206 200 196 196 195 193 189 186 183 183 190 194 190 187 187 193 198 198 199 203 205 207 210 207 203 203 202 204 208 197 187 190 200 207 211 210 210 211 214 219 220 224 227 226 231 237 240 243 248 252 250 254 265 268 266 274
295 338 326 314 325 327 321 318 310 304 300 283 273 291 317 300 124 134 168 178 191 212 217 221 202 193 201 195 192 195 195 190 184 188 196 191 187 219 241 224 209 211 207 199 197 197 194 188 187 185 183 189 193 191 188 188 193 196 197 199 203 204 205 208 210 208 212 211 205 205 198 187 188 195 203 208 208 209 210 212 218 219 222 228 228 229 232 237 240 244 248 247 254 266 266 261 271
303 322 314 311 323 319 308 303 299 293 283 277 298 322 310 291 37 127 192 202 214 213 206 210 205 206 210 195 193 203 203 200 202 200 188 192 200 206 228 235 220 212 211 210 203 197 196 192 188 185 184 190 194 192 189 190 195 196 197 200 204 207 208 207 207 210 218 218 205 202 199 188 188 191 198 205 205 207 210 210 215 218 220 225 229 231 231 234 238 238 237 235 243 253 253 256 272
308 311 303 299 302 295 284 280 284 288 288 304 315 307 295 291 281 205 210 227 254 220 180 188 195 210 220 204 199 203 209 203 197 204 198 193 199 205 218 229 222 204 204 224 216 198 197 196 190 187 186 189 196 196 191 191 195 197 198 201 205 207 208 208 205 205 215 217 199 195 197 185 181 186 195 203 204 206 209 210 213 216 219 224 227 229 232 235 235 233 232 230 234 245 249 254 262
297 297 290 280 272 272 271 267 286 300 296 292 291 292 294 289 274 245 210 218 269 134 144 182 192 196 211 207 201 196 204 212 192 194 202 196 197 207 218 221 212 200 207 229 218 189 198 206 192 186 186 190 198 199 194 192 195 198 200 201 205 206 207 210 205 198 203 207 196 192 195 189 184 190 198 200 203 208 209 211 213 216 218 221 225 227 231 234 231 229 232 230 230 238 243 248 257
266 274 280 284 266 257 258 256 275 297 293 291 290 289 281 279 280 281 283 183 192 139 138 164 168 178 205 211 208 195 194 207 199 191 194 198 197 205 221 218 201 197 205 224 225 187 193 205 188 179 185 191 197 200 194 192 195 199 202 202 204 207 208 210 206 195 193 199 199 195 196 197 195 198 202 201 204 208 209 211 214 217 219 219 222 225 228 233 234 230 233 234 229 229 231 235 245
258 257 264 282 283 284 288 288 298 291 284 288 294 295 285 282 289 299 315 101 138 173 71 85 116 158 176 193 209 202 195 204 205 198 192 197 200 201 214 213 198 197 195 203 210 187 184 198 186 179 186 191 195 198 194 193 197 199 201 202 203 208 210 210 208 199 193 196 199 199 197 198 201 203 204 203 204 208 209 209 212 217 221 220 221 224 225 229 236 237 236 238 234 229 228 227 234
305 293 301 312 317 321 319 309 305 292 279 281 295 303 294 284 294 301 302 190 132 100 60 70 78 106 138 178 199 197 199 204 210 209 196 194 200 201 210 209 200 203 199 193 191 174 180 200 195 183 185 189 194 198 196 195 199 200 201 203 203 206 208 209 210 205 199 196 198 205 204 198 201 206 207 203 202 206 207 207 210 215 220 221 222 226 228 227 231 236 238 242 244 242 237 233 235
304 304 305 302 314 316 312 314 309 308 306 292 291 294 289 307 337 304 301 349 88 78 61 53 43 41 40 242 219 204 203 202 207 211 197 190 194 198 210 211 199 196 195 195 184 157 169 191 193 186 187 189 193 196 196 195 198 201 202 203 204 203 205 208 209 209 205 201 202 208 210 205 203 205 208 208 204 205 206 206 209 212 216 219 220 223 226 229 231 232 237 244 251 254 250 248 250
299 311 290 285 330 338 315 306 300 307 314 301 285 282 291 312 270 258 262 81 77 64 51 38 27 24 7 330 289 233 212 207 204 201 196 192 190 196 207 209 205 198 188 194 188 156 164 182 185 188 191 189 191 193 193 193 197 201 202 204 206 204 205 206 208 212 211 209 210 210 211 213 211 206 207 210 207 205 207 206 205 209 214 213 215 219 221 227 232 229 233 241 247 255 258 258 259
318 318 285 303 336 338 312 300 297 301 300 295 293 287 293 271 212 253 303 65 60 44 33 21 9 14 25 5 325 295 260 236 205 185 187 191 190 198 201 200 208 206 192 195 188 159 168 183 184 191 195 189 190 191 190 194 196 198 201 205 206 205 206 207 206 208 212 215 218 216 212 211 214 215 212 212 210 206 206 202 199 205 210 207 209 216 218 224 230 227 229 235 237 246 257 261 267
272 298 307 320 317 297 295 308 310 306 292 295 305 297 308 305 294 23 20 30 44 38 17 2 7 16 24 9 330 312 299 282 230 183 175 182 192 197 199 202 206 205 198 197 180 163 180 191 187 193 197 190 190 188 187 193 193 195 201 204 208 207 206 209 209 206 209 215 217 218 218 211 212 217 217 216 212 205 206 207 206 210 210 205 207 212 215 219 223 227 231 234 235 242 253 260 268
220 243 299 311 290 285 316 312 305 305 292 295 304 300 347 9 359 18 23 24 30 29 15 12 15 17 22 10 335 318 315 314 282 215 176 177 193 189 194 205 206 202 198 189 172 168 188 201 196 197 200 196 193 189 188 191 191 195 201 204 212 214 209 211 212 208 209 215 218 218 219 216 214 216 216 218 217 211 211 211 213 221 218 210 211 215 218 217 217 224 232 240 247 251 256 261 268
236 242 246 235 268 301 307 301 300 301 294 299 305 303 18 40 11 12 18 18 15 8 6 15 15 19 32 25 341 320 318 319 298 241 195 195 201 193 198 207 204 199 193 178 168 168 181 195 199 198 200 202 200 190 183 185 188 193 204 209 216 224 226 226 219 211 209 213 220 222 218 218 219 219 216 215 218 224 224 212 209 219 226 222 215 213 216 215 214 219 228 240 253 257 257 260 264
331 297 282 290 301 282 273 283 285 278 283 295 299 298 50 42 7 20 21 10 4 358 353 360 7 17 38 47 357 317 309 309 300 264 211 201 201 198 200 204 200 195 186 174 170 171 175 182 188 190 186 188 219 194 133 128 176 182 190 209 217 222 231 237 232 221 213 210 215 220 218 217 220 222 222 216 215 223 229 223 213 214 223 231 221 212 213 212 212 217 226 239 253 261 261 261 265
323 307 307 315 309 302 293 286 290 294 297 301 294 292 54 37 2 20 23 9 3 357 349 346 351 10 41 55 9 318 310 308 303 282 237 205 199 198 197 197 192 186 181 175 172 171 172 174 175 169 155 155 166 180 175 188 207 197 190 197 206 211 215 223 228 223 220 221 220 215 215 221 222 221 225 224 219 219 225 229 225 218 221 231 233 224 216 209 211 222 234 243 252 262 265 264 264
Height
774 776 776 780 779 779 781 783 798 795 794 806 792 784 782 771 766 769 772 768 776 779 773 782 785 781 782 784 786 785 786 792 796 804 811 801 796 802 804 806 809 812 816 818 820 822 823 824 825 826 827 827 828 829 830 832 833 833 834 835 835 836 837 838 838 839 839 840 841 841 841 841 842 842 843 843 843 844 844 844 845 844 844 844 844 845 845 845 845 845 844 844 844 843 843 842 842
777 776 775 780 778 782 785 783 801 800 799 809 790 781 780 771 769 770 773 769 772 776 769 773 779 778 776 776 778 784 789 786 784 790 793 792 797 802 803 807 809 812 816 818 820 822 823 825 825 827 827 828 829 830 831 832 833 834 834 835 836 837 838 838 839 839 840 841 841 842 842 842 843 843 843 844 844 845 845 845 845 845 845 844 845 845 845 845 845 845 845 844 844 843 843 843 842
779 778 776 780 780 782 784 789 806 809 811 811 793 780 777 778 778 773 766 762 761 764 767 768 774 776 778 784 783 790 796 786 782 785 789 794 797 800 804 807 809 813 815 818 821 822 824 825 826 827 828 829 829 831 831 832 833 834 835 836 837 838 838 839 839 840 841 841 842 842 843 843 844 844 844 845 845 845 845 845 845 845 845 845 845 845 846 846 845 845 845 844 844 843 843 843 842
779 781 781 781 786 790 793 802 806 810 818 810 797 783 773 775 772 768 761 756 756 760 768 771 777 775 778 792 788 790 796 788 785 785 790 795 795 800 803 806 810 813 816 818 821 822 824 825 826 827 828 830 830 832 832 833 833 834 836 836 838 838 839 840 840 841 841 842 843 843 843 844 844 845 845 845 846 846 846 846 846 846 845 845 845 846 846 846 846 846 845 845 844 843 843 843 842
779 782 782 784 796 799 798 804 801 807 815 802 793 782 770 767 762 763 759 754 757 763 769 772 783 778 777 786 785 792 795 789 788 785 789 794 796 800 803 807 810 812 816 818 821 822 824 825 827 827 829 830 831 832 832 833 834 835 836 837 838 839 840 840 841 842 842 843 843 844 844 845 845 845 846 846 846 846 847 846 846 846 846 846 846 846 846 846 846 846 845 845 844 843 843 843 843
778 781 781 783 791 792 800 807 803 802 793 783 784 775 767 762 759 761 759 756 758 764 766 771 781 781 785 784 781 788 787 788 789 787 789 793 797 800 803 807 810 813 816 818 821 822 824 826 827 828 829 830 831 832 833 834 834 835 837 838 839 839 840 841 842 842 843 844 844 844 845 845 846 846 846 847 847 847 847 847 846 846 846 846 846 846 845 846 845 845 845 844 844 843 843 843 843
777 783 785 787 787 787 805 810 802 798 781 770 773 768 763 759 757 760 761 764 768 768 767 772 773 782 794 787 785 785 781 785 785 788 791 792 797 800 804 807 810 813 815 818 820 821 824 826 827 829 829 831 832 832 833 834 835 836 837 838 839 840 841 842 842 843 843 844 845 845 845 846 846 847 847 847 847 847 847 847 847 846 846 846 845 845 845 845 845 845 845 844 844 843 843 843 843
777 783 783 791 796 792 805 808 799 794 778 764 762 761 760 756 755 761 764 769 776 774 771 774 771 786 796 787 793 789 782 785 784 790 792 793 797 801 804 807 810 813 816 818 820 822 824 826 827 828 829 831 832 833 833 834 835 836 838 839 840 841 841 842 843 843 844 845 845 846 846 846 847 847 847 847 847 847 847 847 847 847 846 846 846 845 845 845 845 844 844 844 844 843 843 843 843
776 780 782 792 802 801 806 809 801 789 774 764 762 760 756 754 754 760 764 767 774 773 773 773 773 790 796 790 796 789 783 787 787 791 793 796 799 801 805 807 811 813 816 818 820 822 824 826 827 828 829 830 832 833 834 835 836 837 838 839 840 841 841 842 843 844 844 845 846 846 846 847 847 847 847 847 847 847 847 847 847 847 846 846 846 845 845 845 844 844 844 844 844 843 843 843 843
777 781 786 797 807 810 809 809 806 795 779 765 763 760 756 755 754 759 763 766 771 774 774 770 775 789 793 796 797 789 787 788 789 793 794 798 799 802 805 808 812 813 816 819 820 822 824 827 827 829 829 830 832 833 834 835 836 837 838 839 840 841 842 843 843 844 844 845 846 846 847 847 847 847 847 847 847 847 847 847 847 846 846 846 846 845 845 844 844 844 844 844 844 843 843 843 843
784 786 785 801 814 818 816 813 811 801 784 770 765 760 755 753 754 758 762 768 772 776 775 772 782 789 791 797 795 788 787 788 790 793 795 798 800 803 805 809 812 814 816 818 821 823 824 827 828 829 830 831 832 833 835 835 836 838 839 840 841 841 842 843 843 844 844 845 846 846 847 847 847 847 847 847 847 847 847 847 846 846 846 846 845 845 845 845 844 844 844 843 843 843 843 843 843
791 795 792 809 818 818 816 815 813 800 789 784 776 761 752 752 756 761 762 768 775 779 774 773 782 784 793 799 792 787 786 789 790 792 795 798 801 803 806 809 812 814 817 819 821 822 824 826 828 830 830 831 832 834 835 836 837 837 839 840 840 841 842 843 843 844 844 845 846 846 847 847 847 847 847 847 847 847 847 847 846 846 846 846 845 845 844 844 844 844 844 843 843 843 843 843 843
790 797 801 812 811 812 813 811 808 799 793 788 779 761 752 755 759 765 766 766 772 780 774 770 773 779 794 798 790 788 787 789 789 792 795 798 801 804 807 809 812 814 817 820 820 822 824 826 828 829 830 831 832 834 835 836 837 837 839 839 840 841 842 843 843 844 844 845 846 846 846 846 847 847 847 847 847 847 847 847 846 846 845 845 845 845 844 844 844 844 844 843 843 843 843 844 843
790 793 800 812 810 810 811 807 803 801 798 784 774 762 758 760 758 760 766 771 774 774 771 764 766 781 793 795 794 790 788 789 789 793 795 798 802 804 807 809 812 815 818 820 820 822 824 826 827 829 830 831 832 834 835 836 836 837 838 839 840 841 842 842 843 844 844 845 845 846 846 846 847 847 847 847 847 847 846 846 846 846 845 845 845 844 844 844 844 843 843 843 843 844 844 844 843
791 793 797 809 814 812 806 803 799 803 800 780 771 765 765 761 752 759 764 772 774 764 764 765 765 782 791 792 795 787 785 789 789 793 795 799 802 804 808 810 813 815 818 819 820 822 824 826 826 828 830 831 832 833 835 835 836 837 838 839 840 841 842 842 843 844 844 845 845 845 846 846 847 847 847 847 847 847 846 846 846 846 845 845 845 844 844 844 843 843 843 843 843 844 844 844 843
781 786 799 807 811 812 802 796 795 800 794 777 770 765 770 761 749 762 761 760 770 763 765 770 765 774 783 784 786 780 783 788 788 793 794 798 801 804 807 811 814 815 818 819 821 822 823 825 826 828 829 830 832 833 834 835 836 837 838 839 840 841 842 842 843 844 844 845 845 845 846 846 846 846 846 846 846 846 846 846 846 845 845 845 844 844 844 844 843 843 843 843 843 843 843 843 843
774 782 798 803 804 805 798 793 793 794 786 776 771 767 776 769 753 757 751 750 766 768 768 770 764 766 774 776 778 778 782 786 788 792 793 797 800 803 807 810 813 815 818 819 820 822 822 824 825 827 828 829 831 832 834 834 835 837 838 839 840 841 841 842 842 843 844 844 845 845 846 846 846 847 847 847 846 846 846 846 846 845 845 844 844 844 844 843 843 843 843 843 843 843 843 843 842
779 787 794 798 800 796 791 790 786 785 783 778 773 771 778 776 764 754 758 768 770 773 774 770 769 766 769 774 777 779 782 785 787 790 791 794 798 801 805 808 812 814 816 818 820 821 822 824 824 826 827 829 830 831 833 833 835 836 837 839 840 841 841 842 842 843 844 843 845 845 846 846 847 847 847 847 847 847 846 845 846 845 844 844 844 844 843 843 843 843 843 843 843 843 842 843 842
779 785 792 797 793 787 783 782 780 781 782 778 773 772 776 777 769 759 773 789 779 781 783 775 777 773 771 775 779 781 782 785 786 789 790 792 796 799 803 806 809 811 814 817 818 819 821 822 824 825 826 828 829 830 831 832 834 835 837 838 839 840 841 842 842 843 843 844 845 845 846 846 847 847 846 847 846 846 846 845 845 845 844 844 844 843 843 842 842 842 842 843 842 842 842 842 842
774 781 796 793 783 782 778 777 778 778 777 780 780 774 775 774 770 768 779 790 781 783 785 780 783 780 775 775 777 780 781 784 785 787 790 792 795 797 801 804 806 809 812 814 816 818 819 821 822 824 826 827 828 829 831 832 833 835 836 837 838 839 840 841 842 842 843 844 845 845 846 846 846 846 846 846 846 846 845 845 845 844 844 843 843 843 842 842 842 842 842 842 842 841 842 842 842
774 782 795 787 779 783 778 775 775 774 773 781 784 781 785 782 778 781 781 789 789 782 779 780 782 778 774 773 775 778 780 783 785 787 789 790 793 794 798 801 804 807 810 812 814 816 818 819 821 823 825 826 827 828 830 831 832 834 836 837 838 838 840 841 841 842 843 844 845 846 846 846 846 846 846 846 846 846 845 845 844 844 844 843 843 843 842 842 842 841 841 841 841 841 840 841 842
779 783 784 779 779 784 777 772 773 772 774 781 786 787 792 789 788 790 785 790 790 777 772 774 775 772 771 771 773 776 778 781 783 785 787 789 790 792 796 799 802 805 807 810 812 814 816 818 819 821 823 824 826 827 829 830 831 833 835 836 837 838 839 840 841 842 843 844 845 845 846 846 846 846 846 846 845 845 845 845 844 844 844 843 843 842 842 842 842 841 841 841 840 839 839 840 841
783 784 774 775 777 780 775 771 773 773 778 786 787 784 784 788 789 788 785 783 776 767 765 768 769 767 767 768 770 775 778 780 782 784 785 787 789 791 794 797 800 802 805 807 809 812 814 816 818 819 821 823 824 826 827 829 830 832 833 835 836 837 838 840 841 841 842 843 844 845 845 845 845 845 844 844 845 845 845 845 844 844 843 843 842 842 842 841 841 841 841 841 840 839 839 841 841
778 783 773 774 775 774 772 770 772 773 779 783 779 778 781 787 788 784 782 776 767 763 761 763 764 764 766 767 769 773 776 778 780 783 785 786 789 791 793 795 797 800 802 805 807 809 812 814 816 817 819 822 823 825 826 828 829 831 832 834 835 836 838 839 840 841 842 842 843 844 844 844 844 844 843 843 843 844 844 844 844 843 842 842 842 842 841 840 841 841 840 840 840 839 839 839 839
774 780 771 772 774 769 769 770 772 773 778 778 776 781 783 781 780 782 780 772 766 763 762 762 763 765 767 765 767 771 773 777 778 781 784 786 788 791 793 795 795 798 800 802 805 807 810 812 814 816 818 820 821 823 825 826 828 829 831 832 834 836 837 838 839 840 841 841 842 843 843 843 843 843 842 841 842 843 844 844 843 843 842 842 841 841 840 840 840 840 840 839 839 839 838 838 838
770 772 767 769 772 766 768 771 772 774 775 776 781 785 782 775 775 779 773 768 768 765 765 766 766 768 766 764 765 769 772 775 776 779 782 785 787 788 790 793 793 795 798 800 803 806 808 810 812 814 816 818 820 821 823 825 826 828 830 831 833 834 836 837 839 839 840 841 841 842 842 842 842 842 842 841 841 842 843 843 842 842 841 841 841 841 840 840 840 839 839 839 838 838 838 838 838
758 763 766 767 769 766 767 771 772 773 773 775 782 786 781 774 779 783 771 765 768 769 770 769 771 770 765 764 763 765 770 771 774 777 779 782 784 785 787 789 791 792 796 798 801 804 806 808 810 812 814 816 818 819 821 823 825 827 828 830 832 833 835 836 837 838 839 840 840 841 841 841 842 841 841 841 841 841 842 842 841 841 840 840 840 840 840 840 839 839 839 838 838 838 838 838 838
752 758 768 769 767 768 767 771 774 774 776 774 777 784 781 777 783 782 770 763 766 771 773 772 777 772 762 764 762 763 767 768 772 774 776 779 780 782 784 784 786 789 793 795 798 801 804 806 808 811 812 814 816 818 820 822 823 825 827 829 831 832 834 835 836 837 838 839 839 840 840 840 841 841 841 841 841 841 841 841 840 840 840 839 839 839 839 839 839 839 839 838 838 838 838 837 837
751 756 775 777 770 775 771 769 772 774 778 771 773 789 787 782 782 772 764 763 764 770 773 773 779 775 764 762 762 763 765 767 770 771 773 776 778 779 781 782 784 787 790 793 797 799 801 804 806 808 810 812 814 816 818 820 822 823 826 827 829 831 832 834 835 836 836 837 837 838 839 839 840 840 840 840 840 840 840 840 839 839 839 838 838 839 838 838 838 838 838 838 838 838 838 837 837
754 761 774 778 779 785 774 768 771 774 777 767 776 798 793 780 775 766 761 762 766 772 774 774 777 780 772 762 762 763 764 767 767 769 772 774 776 777 779 782 783 785 788 791 794 796 799 801 804 806 809 810 812 815 816 818 820 822 824 826 828 829 830 832 834 835 835 835 836 837 838 838 838 839 839 840 839 840 840 839 839 838 838 837 837 838 838 838 838 838 838 837 837 837 837 837 836
758 768 776 780 789 790 772 766 771 777 776 766 779 799 791 778 772 764 759 760 767 772 775 776 778 784 778 764 763 764 762 766 766 767 771 771 773 774 777 780 782 785 787 790 792 794 797 799 801 804 806 809 811 813 814 816 819 820 822 824 826 828 829 831 832 833 833 834 835 836 836 836 837 838 838 838 838 839 839 838 838 837 837 837 837 837 837 837 837 837 837 837 836 836 836 836 835
757 775 792 789 788 786 772 765 767 777 776 766 780 795 786 777 770 762 758 759 766 771 774 776 777 781 781 768 762 764 762 762 764 766 768 769 770 772 775 777 779 783 785 787 790 792 796 797 799 802 804 807 809 811 813 815 817 819 821 823 824 826 827 829 830 832 832 832 833 833 834 834 835 836 836 837 837 837 837 837 837 836 836 836 836 836 836 836 837 836 836 836 835 835 835 834 834
761 780 801 794 787 784 776 768 760 766 774 771 779 788 783 773 765 759 757 758 764 769 771 775 777 779 783 776 763 761 763 762 763 764 765 767 769 771 773 775 776 779 782 785 787 790 794 796 798 801 803 805 807 810 811 813 815 817 819 821 823 824 826 827 829 830 831 830 831 831 831 832 833 834 835 835 835 836 836 836 836 835 835 835 835 835 835 836 836 835 835 835 835 834 834 833 832
773 785 793 785 778 774 775 775 761 758 772 776 776 781 778 767 759 757 755 756 761 766 769 773 778 779 785 785 771 762 762 763 763 761 763 765 767 769 771 773 775 777 780 782 785 788 791 794 797 799 801 803 806 808 810 812 814 816 818 820 822 823 824 826 827 828 829 828 828 829 829 830 832 832 833 833 834 834 834 835 834 834 834 834 834 834 835 835 835 834 834 834 835 834 834 833 832
777 781 781 777 770 765 769 771 761 758 767 771 776 780 772 762 757 756 754 753 759 763 764 769 776 779 782 784 778 769 762 762 763 760 761 764 765 768 769 772 774 775 778 780 782 785 789 792 795 797 799 802 804 807 809 811 813 815 816 818 820 821 823 824 825 826 827 827 827 826 827 828 830 830 831 832 832 833 833 833 833 833 833 833 833 834 834 834 834 834 834 834 834 834 834 833 833
768 768 771 775 772 765 759 758 752 752 764 767 770 774 767 761 758 755 751 748 755 761 760 765 773 777 776 777 778 777 770 761 758 759 760 762 765 767 768 770 772 774 777 779 781 783 786 790 793 795 798 800 803 805 807 809 811 813 814 816 818 819 821 821 823 823 824 825 826 825 826 827 828 829 830 830 831 831 832 832 832 832 832 832 833 833 833 833 833 833 833 833 833 833 833 833 833
762 765 769 768 768 765 753 749 745 744 764 768 760 763 759 757 755 749 746 746 752 758 760 763 769 774 775 774 776 779 777 765 756 758 759 761 763 765 768 769 771 773 775 777 780 782 785 788 791 793 796 799 800 802 805 807 809 810 812 814 815 816 818 819 820 821 822 822 824 824 823 825 826 827 828 828 829 830 831 831 831 831 831 832 832 832 832 832 832 832 832 833 833 833 833 832 832
762 766 769 766 765 762 747 745 744 741 761 768 756 759 757 750 748 743 742 748 752 753 757 761 763 769 772 772 774 775 776 770 761 759 758 760 762 764 766 768 769 771 773 776 778 781 784 786 789 791 794 797 798 800 803 805 807 808 810 811 812 814 815 817 818 819 820 820 821 822 822 823 825 825 827 827 828 829 830 831 830 831 830 831 831 831 832 831 831 832 832 832 832 832 832 831 831
763 764 768 770 762 754 743 739 740 740 756 765 757 760 759 748 744 743 743 748 750 747 750 754 756 764 770 770 771 770 771 771 767 762 758 758 760 762 765 766 768 770 771 774 776 779 783 785 787 789 792 794 796 799 801 803 805 806 808 809 810 811 812 814 816 816 818 818 819 820 821 822 823 824 826 826 827 828 829 829 829 830 829 830 830 830 831 830 830 831 831 831 831 831 830 830 829
762 762 767 768 757 754 754 743 738 739 746 755 756 759 757 748 744 745 745 745 746 745 745 747 749 758 765 764 765 767 769 771 771 766 760 760 760 761 764 765 767 769 770 772 775 778 781 783 785 787 790 793 794 797 800 802 804 805 807 808 809 809 810 812 813 814 815 816 817 818 819 821 822 823 824 825 826 827 827 828 828 828 828 829 829 829 829 829 829 829 829 830 829 830 829 828 828
759 755 759 761 752 752 754 743 737 740 741 742 752 763 760 750 753 758 752 748 750 748 747 748 747 750 757 760 761 763 766 769 772 769 765 766 765 761 762 764 766 767 769 771 773 776 778 781 784 786 789 791 793 796 798 801 803 804 806 807 808 808 809 810 811 812 813 814 816 816 817 819 820 822 823 824 825 825 826 826 827 827 827 827 828 828 828 828 828 828 828 828 828 828 828 827 826
763 753 748 749 747 746 744 738 740 756 761 745 749 777 775 751 755 766 762 758 757 752 750 750 749 749 753 757 759 759 761 765 768 766 764 767 769 767 764 764 766 766 767 770 771 774 776 779 782 785 787 790 792 794 797 799 801 803 804 805 806 806 807 808 809 810 811 813 814 814 815 817 819 820 821 822 823 824 824 825 825 825 826 826 826 826 827 827 827 827 827 827 827 827 827 826 825
770 751 739 739 741 744 745 744 751 769 771 747 741 770 777 755 754 764 763 763 760 754 752 749 748 750 751 753 755 755 757 760 762 762 761 763 768 771 768 765 765 766 766 768 771 773 775 778 781 784 787 789 791 793 795 797 799 801 802 803 804 805 806 807 807 808 809 811 812 813 814 815 816 818 819 821 822 822 823 823 824 824 824 825 825 826 826 826 826 826 826 826 826 826 826 826 826
768 745 738 743 744 749 751 751 758 763 759 748 737 749 771 769 760 755 755 761 762 757 754 749 746 749 749 750 752 752 754 756 758 760 761 763 764 767 767 765 764 765 766 767 769 771 773 777 780 783 786 788 790 792 793 796 798 799 801 802 803 804 805 806 807 808 808 810 810 811 812 813 815 816 818 819 820 821 821 822 822 822 823 823 824 824 825 825 825 825 825 825 825 825 825 825 825
758 740 741 744 745 751 751 754 760 755 758 765 749 745 775 780 759 750 752 758 762 756 753 750 748 748 748 749 751 751 751 752 755 756 758 760 761 762 763 763 764 764 766 768 769 772 774 776 779 782 785 788 790 791 792 794 797 798 799 801 802 803 804 805 806 807 808 808 809 811 811 812 813 814 816 817 818 819 820 820 821 821 821 822 822 823 823 823 824 824 824 824 824 824 824 824 825
747 738 743 743 745 748 748 755 759 757 769 780 762 754 779 784 762 755 758 759 757 751 750 750 748 748 748 748 750 750 749 749 752 754 755 756 758 760 761 762 762 763 766 771 772 773 774 776 779 781 784 787 789 790 792 793 795 797 798 800 801 802 803 804 805 806 807 807 808 810 811 811 812 813 815 816 817 818 818 819 819 820 820 820 821 821 821 822 822 822 822 823 823 823 823 824 824
742 742 747 748 748 745 748 751 753 772 787 780 764 756 774 788 769 752 753 751 745 745 752 751 745 746 746 744 745 746 747 747 749 752 752 754 757 758 760 760 760 762 765 770 772 771 773 776 777 779 782 785 788 789 790 792 794 796 797 799 800 801 802 802 803 804 805 806 807 808 810 811 811 812 813 815 815 816 817 817 818 818 818 819 819 819 820 820 820 821 821 821 822 822 823 823 823
743 749 752 759 757 749 756 756 759 792 801 775 757 751 767 788 773 746 738 735 732 739 746 746 745 747 745 742 742 743 745 746 746 749 750 752 756 757 758 759 759 762 765 768 771 771 772 774 775 777 780 783 786 788 789 791 793 795 796 798 799 800 801 801 802 803 804 805 806 807 808 810 810 812 812 813 814 814 815 816 816 817 817 817 818 818 818 819 819 819 819 820 820 820 821 821 821
747 751 756 772 773 766 776 778 776 794 793 768 754 753 766 776 759 740 735 731 730 733 736 740 745 747 745 743 742 740 741 743 744 746 747 750 753 754 755 757 757 760 764 767 770 770 770 772 773 774 777 780 784 786 788 790 792 794 795 797 798 799 800 801 801 802 803 804 805 806 807 808 809 810 811 811 812 813 813 814 814 815 815 815 816 816 817 817 817 818 818 818 818 818 819 819 820
755 755 761 778 785 792 802 795 787 790 780 760 751 758 771 769 750 735 731 727 726 728 733 738 740 742 743 741 739 738 738 739 741 742 744 747 749 751 752 753 755 758 761 764 768 768 768 770 772 773 775 778 781 784 786 789 791 793 795 796 798 799 800 801 801 802 803 804 804 805 805 806 808 809 809 809 810 811 811 812 813 813 814 814 814 815 815 816 816 816 817 817 817 817 818 818 819
756 747 755 771 777 791 804 797 793 789 774 759 757 767 776 773 757 735 724 722 721 728 735 737 739 740 739 737 735 736 735 736 737 737 739 743 745 749 750 751 753 755 757 760 763 764 766 769 770 772 774 777 779 782 785 788 790 793 794 796 797 799 800 801 802 802 802 803 803 804 804 804 806 806 807 808 808 809 810 810 811 812 812 813 813 813 814 815 815 815 816 816 816 817 817 818 818
755 741 755 766 758 767 784 785 780 778 778 772 765 766 760 751 743 726 721 726 725 732 739 741 745 743 740 740 736 733 732 731 732 734 737 740 742 746 748 749 750 751 754 757 759 761 763 766 768 770 773 775 778 781 784 787 790 792 794 796 797 799 800 800 801 802 802 802 802 802 803 803 804 804 805 806 806 807 808 809 809 810 811 811 812 812 813 814 814 814 815 815 816 816 816 816 817
759 756 766 756 739 752 778 783 769 771 791 784 765 767 756 743 742 730 727 736 738 743 749 748 749 745 744 747 742 738 735 730 728 731 735 737 739 744 746 748 750 750 752 756 757 758 759 761 765 768 771 774 777 780 783 786 789 792 794 796 797 798 799 800 800 801 801 801 801 801 802 802 803 803 804 804 805 806 807 807 808 809 809 810 811 812 812 813 813 814 814 815 815 816 816 815 816
764 771 762 745 742 750 767 787 787 789 802 787 767 774 771 765 767 753 746 754 756 758 760 757 753 748 748 749 747 745 741 735 730 729 732 735 737 741 744 746 747 748 750 753 755 756 757 759 763 767 770 773 776 779 782 785 788 791 793 795 797 797 798 799 799 800 800 800 800 800 800 801 801 802 802 803 804 804 805 806 807 807 808 809 810 811 812 812 812 813 813 814 814 815 815 815 815
747 755 746 751 772 774 772 789 801 804 808 794 775 773 777 785 785 770 765 766 764 762 760 761 758 753 753 754 752 749 744 741 738 733 733 734 734 736 738 740 742 745 748 750 752 753 755 758 762 766 770 772 775 778 781 784 787 790 793 794 796 797 797 798 798 798 799 798 799 799 799 799 800 800 801 802 802 803 804 805 806 807 807 808 809 809 810 811 811 812 813 813 814 814 814 815 815
733 741 740 746 764 774 776 780 787 798 807 802 790 785 790 793 782 774 775 770 767 767 761 760 760 757 759 762 759 754 751 748 743 738 734 732 731 731 733 737 739 742 745 747 749 751 754 758 761 766 770 774 778 779 780 783 786 790 792 794 796 797 798 798 797 797 797 797 797 798 798 798 798 799 799 800 801 802 802 803 804 806 806 807 807 808 809 810 811 811 812 813 813 814 814 814 814
751 757 756 753 756 761 768 770 769 781 796 802 805 805 801 788 773 772 776 771 768 768 763 762 761 760 763 767 765 760 756 754 748 740 733 729 729 729 732 735 737 740 743 744 746 750 753 757 761 766 771 776 781 782 783 786 788 790 791 793 795 795 796 797 797 797 796 796 796 796 797 796 796 797 797 798 799 800 801 802 803 804 805 806 806 807 808 809 809 810 811 812 812 813 813 813 814
758 764 763 763 763 766 781 785 771 767 781 791 799 807 804 788 775 772 773 771 769 766 766 767 765 764 767 770 769 761 757 759 755 743 733 727 727 728 730 733 735 739 741 743 746 750 753 758 762 766 771 776 780 781 782 783 783 784 786 787 787 787 789 793 795 796 795 795 795 794 793 794 794 794 795 795 796 797 799 800 801 802 803 804 805 806 808 808 809 810 810 811 811 812 812 812 813